Weather in Buôn Ma Thuột

Vietnam     12°40′33″N   108°02′52″E
temp.,
°C
wind,
m/s
gust,
m/s
humid.,
%
clouds,
%
prec.,
mm/h
press.,
hPa
HPBL,
m
12 august, fri
fri1201:00+21s2697100 0.1 1010211
04:00+20s159764 0.0 1009161
07:00+22s159297 0.0 1011195
10:00+28wsw256519 0.0 10101076
13:00+29nw246698 0.1 1008940
16:00+26nw3589100 1.4 1007475
19:00+23n119698 3.4 100929
22:00+22sse1197100 0.0 101112
13 august, sat
sat1301:00+21sse1198100 0.0 101031
04:00+21sse119761 0.0 100919
07:00+22s129592 0.0 1011112
10:00+28w236890 0.0 1011931
13:00+30nw235994 0.0 10081394
16:00+29nw33685 0.1 1007858
19:00+23n11955 3.6 100812
22:00+22s11976 0.0 101011
14 august, sun
sun1401:00+22sse119814 0.0 100913
04:00+21sse119833 0.0 100914
07:00+23s019510 0.0 1010111
10:00+28wnw2370100 0.1 1010933
13:00+30nw3361100 0.6 10081347
16:00+29nw336968 1.5 1007917
19:00+23sse1194100 3.6 100811
22:00+22se1197100 3.5 101121
15 august, mon
mon1501:00+22sse1197100 3.5 100927
04:00+21sse1197100 0.1 100826
07:00+22se0196100 1.4 101074
10:00+25sw1283100 0.9 1010303
13:00+24e0194100 2.1 100835
16:00+24s2596100 1.2 1007180
19:00+23s1196100 1.8 100817
22:00+22se129675 0.3 101042
16 august, tue
tue1601:00+21s139676 0.3 100975
04:00+21w119692 0.0 100828
07:00+22nnw119786 0.0 1009152
10:00+27w2472100 0.0 1009950
13:00+26w238748 2.1 1007528
16:00+26nnw239297 5.1 1005267
19:00+23nnw1197100 6.6 100716
22:00+22se009711 0.6 100912